FW4741 Weather Reports


time (UTC)temp
C
wind
direction
speed
KPH
gust
KPH
rain 1hr
cm
rain 24hr
cm
rain mn
cm
humidity
%
barometer
mb
20260901070103 15 77 3.2 9.7 0.00 0.00 0.00 85 1024.7
20260901065602 16 77 3.2 9.7 0.00 0.00 0.00 85 1024.7
20260901065103 16 77 3.2 9.7 0.00 0.00 0.00 84 1024.7
20260901064603 16 77 3.2 9.7 0.00 0.00 0.00 84 1024.7
20260901063602 16 77 3.2 9.7 0.00 0.00 0.00 83 1024.7
20260901063103 16 77 3.2 9.7 0.00 0.00 0.00 83 1024.7
20260901062602 16 77 3.2 9.7 0.00 0.00 0.00 83 1024.7
20260901062103 16 77 3.2 9.7 0.00 0.00 0.00 83 1024.8
20260901061603 16 77 3.2 9.7 0.00 0.00 0.00 83 1024.7
20260901061103 16 77 3.2 9.7 0.00 0.00 0.00 82 1024.7
20260901060603 16 77 3.2 9.7 0.00 0.00 0.00 83 1024.7
20260901055602 16 77 3.2 9.7 0.00 0.00 0.00 83 1024.7
20260901055103 16 77 3.2 9.7 0.00 0.00 0.00 83 1024.7
20260901054602 17 77 3.2 9.7 0.00 0.00 0.00 82 1024.7
20260901054103 17 77 3.2 9.7 0.00 0.00 0.00 81 1024.7
20260901053602 17 77 3.2 9.7 0.00 0.00 0.00 82 1024.7
20260901053103 17 77 3.2 9.7 0.00 0.00 0.00 82 1024.7
20260901051603 17 77 3.2 9.7 0.00 0.00 0.00 82 1024.6
20260901051102 17 77 3.2 9.7 0.00 0.00 0.00 82 1024.6
20260901050603 17 77 3.2 9.7 0.00 0.00 0.00 83 1024.6
20260901045102 17 77 3.2 9.7 0.00 0.00 0.00 83 1024.6
20260901044603 17 77 3.2 9.7 0.00 0.00 0.00 83 1024.7
20260901044103 17 77 3.2 9.7 0.00 0.00 0.00 83 1024.7
20260901043603 17 77 3.2 9.7 0.00 0.00 0.00 83 1024.7
20260901043103 17 77 3.2 9.7 0.00 0.00 0.00 84 1024.7
20260901042603 17 77 3.2 9.7 0.00 0.00 0.00 84 1024.7
20260901042103 17 77 3.2 9.7 0.00 0.00 0.00 83 1024.8
20260901041603 17 77 3.2 9.7 0.00 0.00 0.00 83 1024.8
20260901041103 17 77 3.2 9.7 0.00 0.00 0.00 82 1024.8
20260901040603 17 77 3.2 9.7 0.00 0.00 0.00 82 1024.7
20260901035603 17 77 3.2 9.7 0.00 0.00 0.00 82 1024.6
20260901034102 18 77 3.2 9.7 0.00 0.00 0.00 81 1024.5
20260901033603 18 77 3.2 9.7 0.00 0.00 0.00 80 1024.5
20260901033102 18 77 3.2 9.7 0.00 0.00 0.00 80 1024.3
20260901032603 18 77 3.2 9.7 0.00 0.00 0.00 81 1024.3
20260901032103 18 77 3.2 9.7 0.00 0.00 0.00 82 1024.2
20260901031604 18 77 3.2 9.7 0.00 0.00 0.00 82 1024.2
20260901031103 18 77 3.2 9.7 0.00 0.00 0.00 81 1024.1
20260901030603 18 77 3.2 9.7 0.00 0.00 0.00 81 1024.1
20260901025603 19 77 3.2 9.7 0.00 0.00 0.00 78 1024.1
20260901025103 19 77 3.2 9.7 0.00 0.00 0.00 78 1024.1
20260901024103 19 77 3.2 9.7 0.00 0.00 0.00 78 1024.1
20260901023602 19 77 3.2 9.7 0.00 0.00 0.00 78 1024.0
20260901023103 19 77 3.2 9.7 0.00 0.00 0.00 79 1024.0
20260901022603 19 77 3.2 9.7 0.00 0.00 0.00 82 1023.9
20260901021603 20 77 3.2 9.7 0.00 0.00 0.00 81 1023.8
20260901021103 20 77 3.2 9.7 0.00 0.00 0.00 79 1023.8
20260901020603 20 77 3.2 9.7 0.00 0.00 0.00 78 1023.8
20260901015603 20 77 3.2 9.7 0.00 0.00 0.00 78 1023.7
20260901015103 20 77 3.2 9.7 0.00 0.00 0.00 78 1023.7
20260901014603 20 77 3.2 9.7 0.00 0.00 0.00 78 1023.7
20260901014103 20 77 3.2 9.7 0.00 0.00 0.00 78 1023.7
20260901012102 20 77 3.2 9.7 0.00 0.00 0.00 76 1023.5
20260901011103 20 77 3.2 9.7 0.00 0.00 0.00 76 1023.3
20260901010603 20 77 3.2 9.7 0.00 0.00 0.00 75 1023.3
20260901005603 20 77 3.2 9.7 0.00 0.00 0.00 75 1023.3
20260901005103 21 77 3.2 9.7 0.00 0.00 0.00 74 1023.2
20260901004603 21 77 3.2 9.7 0.00 0.00 0.00 74 1023.2
20260901004103 21 77 3.2 9.7 0.00 0.00 0.00 73 1023.2
20260901002603 21 77 3.2 9.7 0.00 0.00 0.00 71 1023.1
20260901002103 22 77 3.2 9.7 0.00 0.00 0.00 71 1023.1
20260901001603 22 77 3.2 9.7 0.00 0.00 0.00 70 1023.1
20260901001103 22 77 3.2 9.7 0.00 0.00 0.00 70 1023.1
20260901000603 22 77 3.2 9.7 0.00 0.00 0.00 69 1023.1
20260901000103 22 77 3.2 9.7 0.00 0.00 0.00 70 1023.1
20260831235103 22 77 3.2 9.7 0.00 0.00 0.00 70 1023.0
20260831234603 22 77 3.2 9.7 0.00 0.00 0.00 70 1022.9
20260831234103 22 77 3.2 9.7 0.00 0.00 0.00 70 1022.9
20260831233604 22 77 3.2 9.7 0.00 0.00 0.00 71 1022.9
20260831233103 23 77 3.2 9.7 0.00 0.00 0.00 70 1022.9
20260831232604 23 77 3.2 9.7 0.00 0.00 0.00 65 1022.9
20260831232103 23 77 3.2 9.7 0.00 0.00 0.00 65 1022.8
20260831231603 23 77 3.2 9.7 0.00 0.00 0.00 64 1022.7
20260831230602 22 77 3.2 9.7 0.00 0.00 0.00 66 1022.7
20260831225102 22 77 3.2 9.7 0.00 0.00 0.00 67 1022.8
20260831224602 22 77 3.2 9.7 0.00 0.00 0.00 68 1022.8
20260831224103 22 77 3.2 9.7 0.00 0.00 0.00 67 1022.8
20260831223603 22 77 3.2 9.7 0.00 0.00 0.00 66 1022.8
20260831223102 22 77 3.2 9.7 0.00 0.00 0.00 66 1022.8
20260831222602 23 77 3.2 9.7 0.00 0.00 0.00 64 1022.8
20260831221603 23 77 3.2 9.7 0.00 0.00 0.00 64 1022.7
20260831220602 23 77 3.2 9.7 0.00 0.00 0.00 63 1022.7
20260831215602 23 77 3.2 9.7 0.00 0.00 0.00 61 1022.8
20260831214603 24 77 3.2 9.7 0.00 0.00 0.00 60 1022.7
20260831214103 24 77 3.2 9.7 0.00 0.00 0.00 61 1022.7
20260831213604 23 77 3.2 9.7 0.00 0.00 0.00 62 1022.7
20260831213103 23 77 3.2 9.7 0.00 0.00 0.00 64 1022.7
20260831212603 23 77 3.2 9.7 0.00 0.00 0.00 66 1022.8
20260831211604 23 77 3.2 9.7 0.00 0.00 0.00 63 1022.8
20260831211102 23 77 3.2 9.7 0.00 0.00 0.00 63 1022.8
20260831210603 23 77 3.2 9.7 0.00 0.00 0.00 64 1022.9
20260831210103 23 77 3.2 9.7 0.00 0.00 0.00 64 1022.9
20260831205603 23 77 3.2 9.7 0.00 0.00 0.00 63 1022.9
20260831204603 23 77 3.2 9.7 0.00 0.00 0.00 64 1023.0
20260831203603 23 77 3.2 9.7 0.00 0.00 0.00 64 1023.1
20260831203103 23 77 3.2 9.7 0.00 0.00 0.00 63 1023.1
20260831202603 24 77 3.2 9.7 0.00 0.00 0.00 63 1023.1
20260831202103 24 77 3.2 9.7 0.00 0.00 0.00 62 1023.2
20260831201603 24 77 3.2 9.7 0.00 0.00 0.00 61 1023.1
20260831201103 25 77 3.2 9.7 0.00 0.00 0.00 60 1023.2
20260831200602 24 77 3.2 9.7 0.00 0.00 0.00 59 1023.2
20260831195602 24 77 3.2 9.7 0.00 0.00 0.00 60 1023.4
20260831195103 24 77 3.2 9.7 0.00 0.00 0.00 61 1023.4
20260831194603 23 77 3.2 9.7 0.00 0.00 0.00 61 1023.5
20260831194103 23 77 3.2 9.7 0.00 0.00 0.00 61 1023.5
20260831193103 23 77 3.2 9.7 0.00 0.00 0.00 63 1023.7
20260831192603 23 77 3.2 9.7 0.00 0.00 0.00 62 1023.8
20260831192103 23 77 3.2 9.7 0.00 0.00 0.00 62 1023.8
20260831191603 23 77 3.2 9.7 0.00 0.00 0.00 61 1023.8
20260831191102 23 77 3.2 9.7 0.00 0.00 0.00 61 1023.8
20260831190602 24 77 3.2 9.7 0.00 0.00 0.00 60 1023.9
20260831185602 23 77 3.2 9.7 0.00 0.00 0.00 61 1024.0
20260831184603 23 77 3.2 9.7 0.00 0.00 0.00 59 1024.0
20260831184103 23 77 3.2 9.7 0.00 0.00 0.00 59 1023.9
20260831183103 23 77 3.2 9.7 0.00 0.00 0.00 60 1024.1
20260831182602 23 77 3.2 9.7 0.00 0.00 0.00 57 1024.1
20260831182103 23 77 3.2 9.7 0.00 0.00 0.00 61 1024.1
20260831181103 23 77 3.2 9.7 0.00 0.00 0.00 62 1024.1
20260831180603 23 77 3.2 9.7 0.00 0.00 0.00 59 1024.0
20260831175603 23 77 3.2 9.7 0.00 0.00 0.00 61 1024.1
20260831175103 23 77 3.2 9.7 0.00 0.00 0.00 60 1024.1
20260831174602 23 77 3.2 9.7 0.00 0.00 0.00 62 1024.2
20260831174103 23 77 3.2 9.7 0.00 0.00 0.00 61 1024.3
20260831173603 23 77 3.2 9.7 0.00 0.00 0.00 63 1024.3
20260831173103 23 77 3.2 9.7 0.00 0.00 0.00 61 1024.3
20260831172602 23 77 3.2 9.7 0.00 0.00 0.00 61 1024.4
20260831172103 23 77 3.2 9.7 0.00 0.00 0.00 60 1024.5
20260831171602 23 77 3.2 9.7 0.00 0.00 0.00 61 1024.6
20260831171103 23 77 3.2 9.7 0.00 0.00 0.00 57 1024.6
20260831170602 23 77 3.2 9.7 0.00 0.00 0.00 55 1024.6
20260831165103 22 77 3.2 9.7 0.00 0.00 0.00 57 1024.7
20260831164603 22 77 3.2 9.7 0.00 0.00 0.00 56 1024.7
20260831164103 22 77 3.2 9.7 0.00 0.00 0.00 60 1024.8
20260831163602 22 77 3.2 9.7 0.00 0.00 0.00 61 1024.8
20260831162603 21 77 3.2 9.7 0.00 0.00 0.00 67 1024.9
20260831162103 21 77 3.2 9.7 0.00 0.00 0.00 66 1024.9
20260831161603 21 77 3.2 9.7 0.00 0.00 0.00 67 1024.9
20260831161103 20 77 3.2 9.7 0.00 0.00 0.00 68 1024.9
20260831160603 20 77 3.2 9.7 0.00 0.00 0.00 70 1025.0
20260831160103 20 77 3.2 9.7 0.00 0.00 0.00 70 1024.9
20260831155602 20 77 3.2 9.7 0.00 0.00 0.00 71 1025.0
20260831154102 18 77 3.2 9.7 0.00 0.00 0.00 75 1025.0
20260831152602 18 77 3.2 9.7 0.00 0.00 0.00 77 1024.9
20260831152102 18 77 3.2 9.7 0.00 0.00 0.00 77 1024.9
20260831151602 18 77 3.2 9.7 0.00 0.00 0.00 77 1025.0
20260831151103 17 77 3.2 9.7 0.00 0.00 0.00 77 1025.0
20260831145602 17 77 3.2 9.7 0.00 0.00 0.00 82 1025.0
20260831145102 16 77 3.2 9.7 0.00 0.00 0.00 81 1025.0
20260831144603 16 77 3.2 9.7 0.00 0.00 0.00 82 1025.0
20260831144103 16 77 3.2 9.7 0.00 0.00 0.00 82 1025.0
20260831143602 16 77 3.2 9.7 0.00 0.00 0.00 82 1025.0
20260831143103 16 77 3.2 9.7 0.00 0.00 0.00 82 1024.9
20260831142602 16 77 3.2 9.7 0.00 0.00 0.00 83 1024.9
20260831142103 16 77 3.2 9.7 0.00 0.00 0.00 83 1024.9
20260831141603 16 77 3.2 9.7 0.00 0.00 0.00 84 1024.8
20260831140602 15 77 3.2 9.7 0.00 0.00 0.00 85 1024.9
20260831135603 15 77 3.2 9.7 0.00 0.00 0.00 88 1024.8
20260831135103 14 77 3.2 9.7 0.00 0.00 0.00 90 1024.8
20260831134603 14 77 3.2 9.7 0.00 0.00 0.00 92 1024.8
20260831133103 13 77 3.2 9.7 0.00 0.00 0.00 92 1024.8
20260831132602 13 77 3.2 9.7 0.00 0.00 0.00 92 1024.8
20260831132102 13 77 3.2 9.7 0.00 0.00 0.00 92 1024.8
20260831125603 13 77 3.2 9.7 0.00 0.00 0.00 91 1024.7
20260831125102 13 77 3.2 9.7 0.00 0.00 0.00 92 1024.6
20260831124603 13 77 3.2 9.7 0.00 0.00 0.00 92 1024.6
20260831124102 13 77 3.2 9.7 0.00 0.00 0.00 91 1024.7
20260831123602 13 77 3.2 9.7 0.00 0.00 0.00 91 1024.7
20260831123103 13 77 3.2 9.7 0.00 0.00 0.00 91 1024.8
20260831122103 13 77 3.2 9.7 0.00 0.00 0.00 91 1024.8
20260831121603 13 77 3.2 9.7 0.00 0.00 0.00 92 1024.7
20260831120602 13 77 3.2 9.7 0.00 0.00 0.00 93 1024.5
20260831115603 13 77 3.2 9.7 0.00 0.00 0.00 93 1024.4
20260831115103 13 77 3.2 9.7 0.00 0.00 0.00 93 1024.5
20260831114603 13 77 3.2 9.7 0.00 0.00 0.00 93 1024.5
20260831114103 13 77 3.2 9.7 0.00 0.00 0.00 93 1024.5
20260831113103 13 77 3.2 9.7 0.00 0.00 0.00 93 1024.6
20260831112103 13 77 3.2 9.7 0.00 0.00 0.00 94 1024.6
20260831111602 13 77 3.2 9.7 0.00 0.00 0.00 94 1024.6
20260831111102 13 77 3.2 9.7 0.00 0.00 0.00 94 1024.6
20260831110603 12 77 3.2 9.7 0.00 0.00 0.00 94 1024.6
20260831105103 12 77 3.2 9.7 0.00 0.00 0.00 93 1024.6
20260831104603 12 77 3.2 9.7 0.00 0.00 0.00 93 1024.6
20260831104103 12 77 3.2 9.7 0.00 0.00 0.00 93 1024.6
20260831103603 12 77 3.2 9.7 0.00 0.00 0.00 93 1024.5
20260831103103 13 77 3.2 9.7 0.00 0.00 0.00 92 1024.5
20260831102602 13 77 3.2 9.7 0.00 0.00 0.00 92 1024.4
20260831102103 13 77 3.2 9.7 0.00 0.00 0.00 92 1024.4
20260831101103 13 77 3.2 9.7 0.00 0.00 0.00 93 1024.4
20260831100603 13 77 3.2 9.7 0.00 0.00 0.00 93 1024.4
20260831100103 13 77 3.2 9.7 0.00 0.00 0.00 93 1024.4
20260831095603 12 77 3.2 9.7 0.00 0.00 0.00 93 1024.4
20260831095103 12 77 3.2 9.7 0.00 0.00 0.00 93 1024.4
20260831094603 12 77 3.2 9.7 0.00 0.00 0.00 93 1024.3
20260831094103 12 77 3.2 9.7 0.00 0.00 0.00 93 1024.3
20260831093603 12 77 3.2 9.7 0.00 0.00 0.00 93 1024.3
20260831093103 12 77 3.2 9.7 0.00 0.00 0.00 93 1024.3
20260831092603 12 77 3.2 9.7 0.00 0.00 0.00 93 1024.3
20260831092102 13 77 3.2 9.7 0.00 0.00 0.00 93 1024.2
20260831091603 13 77 3.2 9.7 0.00 0.00 0.00 93 1024.3
20260831091103 13 77 3.2 9.7 0.00 0.00 0.00 93 1024.3
20260831090603 13 77 3.2 9.7 0.00 0.00 0.00 93 1024.2
20260831085602 13 77 3.2 9.7 0.00 0.00 0.00 94 1024.1
20260831085103 13 77 3.2 9.7 0.00 0.00 0.00 93 1024.2
20260831084102 13 77 3.2 9.7 0.00 0.00 0.00 93 1024.2
20260831083603 13 77 3.2 9.7 0.00 0.00 0.00 93 1024.2
20260831083103 13 77 3.2 9.7 0.00 0.00 0.00 93 1024.2
20260831082103 13 77 3.2 9.7 0.00 0.00 0.00 93 1024.2
20260831081603 13 77 3.2 9.7 0.00 0.00 0.00 94 1024.2
20260831081102 13 77 3.2 9.7 0.00 0.00 0.00 94 1024.2
20260831080603 13 77 3.2 9.7 0.00 0.00 0.00 93 1024.2
20260831075603 13 77 3.2 9.7 0.00 0.00 0.00 93 1024.3
20260831075103 13 77 3.2 9.7 0.00 0.00 0.00 93 1024.3
20260831074603 13 77 3.2 9.7 0.00 0.00 0.00 93 1024.3
20260831074103 13 77 3.2 9.7 0.00 0.00 0.00 93 1024.3
20260831073603 13 77 3.2 9.7 0.00 0.00 0.00 93 1024.3
20260831072602 13 77 3.2 9.7 0.00 0.00 0.00 92 1024.3
20260831071603 13 77 3.2 9.7 0.00 0.00 0.00 93 1024.3
20260831070603 13 77 3.2 9.7 0.00 0.00 0.00 93 1024.3